Location: Peebles
(55.6412°N, 3.1714°W)
Time: 14:36:57
(UTC+01:00)

USA 307 - Pass Details

Date: 26 September 2021
Orbit: 555 x 584 km, 54.0° (Epoch: 27 September)

Event Time Altitude Azimuth Distance (km) Brightness Sun altitude
Rises 20:02:10 0° 275° (W) 2,751 8.7 -9.5°
Reaches altitude 10° 20:04:25 10° 272° (W) 1,858 7.1 -9.8°
Maximum altitude 20:08:35 64° 192° (SSW) 632 3.1 -10.4°
Enters shadow 20:12:00 15° 113° (ESE) 1,564 4.5 -10.8°
